Miscellaneous Local Product
Issued by NWS North Platte, NE

Home | Current Version | Previous Version | Text Only | Print | Product List | Glossary On
Versions: 1 2 3 4 5 6 7 8 9 10 11 12 13 14 15 16 17 18 19 20 21 22 23 24 25 26 27 28 29 30 31 32 33 34 35 36 37 38 39 40 41 42 43 44 45 46 47 48 49 50
718
AXUS43 KLBF 051310
MISLBF


WESTERN AND NORTH CENTRAL NEBRASKA HOURLY WEATHER ROUNDUP
NATIONAL WEATHER SERVICE NORTH PLATTE NE
700 AM CST FRI FEB 05 2016

NOTE: "FAIR" INDICATES FEW OR NO CLOUDS BELOW 12,000 FEET WITH NO
SIGNIFICANT WEATHER AND/OR OBSTRUCTIONS TO VISIBILITY.

NOTE: STATIONS NOT REPORTING VARIABLES SUCH AS SKY/WEATHER OR
PRESSURE ARE PROVIDED BY THE NEBRASKA DEPARTMENT OF
ROADS...RAWS...AND APRS NETWORKS...AND ARE NOT UNDER
NATIONAL WEATHER SERVICE QUALITY CONTROL.

...OBSERVATIONS IN AND NEAR THE EASTERN PANHANDLE OF NEBRASKA...

CITY           SKY/WX    TMP DP  RH WIND       PRES   REMARKS
PINE RIDGE     CLOUDY    25  18  74 W5        30.18R WCI  19
CHADRON        CLEAR     26  19  74 W10       30.22R WCI  16
ALLIANCE       CLEAR     15  10  80 W14       30.18R WCI   0
SIDNEY         MOCLDY    24  15  68 NW20      30.22R WCI  10
CRESCENT LAKE    N/A     23  16  74 W10         N/A  WCI  12
$$

...OBSERVATIONS IN NORTH CENTRAL NEBRASKA...

CITY           SKY/WX    TMP DP  RH WIND       PRES   REMARKS
VALENTINE      PTCLDY    26  21  81 W7        30.15R WCI  18
THEDFORD       CLOUDY    29  25  83 W7        30.15S WCI  22
AINSWORTH      CLEAR     27  24  88 SW7       30.14S WCI  19
O`NEILL        CLOUDY    23  19  85 SW6       30.17S WCI  16
ORD            CLOUDY    25  24  96 SE3       30.20R FOG
BROKEN BOW     CLOUDY    31  28  89 W6        30.18S WCI  25
VALENTINE NWR    N/A     27  22  80 W5          N/A  WCI  22
HALSEY           N/A     29  26  88 SW3         N/A
CHAMBERS         N/A     24  20  83 S3          N/A
EWING            N/A     24  20  85 S3          N/A
$$

...OBSERVATIONS IN SOUTHWEST NEBRASKA AND FAR NORTHEAST COLORADO...

CITY           SKY/WX    TMP DP  RH WIND       PRES   REMARKS
WRAY           CLOUDY    28  26  94 W6        30.25R WCI  21
HOLYOKE        FAIR      27  21  80 W10       30.24R WCI  17
IMPERIAL       CLOUDY    27  24  89 W10       30.23S WCI  17
OGALLALA       CLOUDY    23  19  86 W9        30.22R WCI  13
NORTH PLATTE   CLOUDY    31  26  82 W14       30.20R WCI  21
MCCOOK         LGT SNOW  31  28  89 W13       30.26S FOG     WCI  21
LEXINGTON      LGT SNOW  32  29  90 W7        30.22S WCI  25
PAXTON           N/A     27  26  94 SW3         N/A
STAPLETON        N/A     28  26  90 CALM        N/A
GOTHENBURG       N/A     32  29  87 W5          N/A  WCI  27
CALLAWAY         N/A     31  29  93 W12         N/A  WCI  22
$$

...OBSERVATIONS IN CENTRAL LINCOLN COUNTY AREA...

CITY           SKY/WX    TMP DP  RH WIND       PRES   REMARKS
N.P. AIRPORT   CLOUDY    31  26  82 W14       30.20R WCI  21
N.P. DOWNTOWN    N/A     30  27  90 CALM        N/A
N.P. SOUTHEAST   N/A     30  27  88 MISG        N/A
N.P. HILLCREST   N/A     30  29  95 W9          N/A  WCI  22
$$

...SOME OBSERVATIONS FROM AROUND THE REGION...

CITY           SKY/WX    TMP DP  RH WIND       PRES   REMARKS
DENVER         CLOUDY    24  12  60 W5        30.24R WCI  18
LARAMIE        CLOUDY    13   4  67 VRB3      30.21S
CHEYENNE       CLEAR     20   8  60 NW15      30.21R WCI   6
SCOTTSBLUFF    CLEAR     18  11  74 NW12      30.24R WCI   5
RAPID CITY     PTCLDY    30  26  85 N22G28    30.14R WCI  17
BISMARCK       CLOUDY    32  27  81 NW7       30.12R WCI  26
PIERRE         PTCLDY    25  22  88 W9        30.10R WCI  15
WINNER         CLOUDY    32  22  66 SW8       30.13S WCI  25
SIOUX FALLS    CLOUDY    17  11  77 S9        30.22S WCI   6
OMAHA          CLOUDY    20  17  88 SE8       30.36R WCI  10
GRAND ISLAND   LGT SNOW  24  21  88 S13       30.26S FOG     WCI  12
KANSAS CITY    PTCLDY    24  20  84 E3        30.39R
WICHITA        MOCLDY    29  20  69 N5        30.35R WCI  24
OKLAHOMA CITY  CLOUDY    34  24  67 S9        30.35R WCI  27
LIBERAL        CLOUDY    28  12  50 E13       30.16S WCI  18
HAYS           CLOUDY    21   9  58 CALM      30.33R
GOODLAND       FLURRIES  29  25  85 W13       30.26R WCI  19
$$




USA.gov is the U.S. government's official web portal to all federal, state and local government web resources and services.